Regional Weather Roundup
Issued by NWS Northern Indiana

Home | Current Version | Previous Version | Text Only | Print | Product List | Glossary On
Versions: 1 2 3 4 5 6 7 8 9 10 11 12 13 14 15 16 17 18 19 20 21 22 23 24 25 26 27 28 29 30 31 32 33 34 35 36 37 38 39 40 41 42 43 44 45 46 47 48 49 50
000
ASUS43 KIWX 021010
RWRIWX

KIWX WEATHER ROUNDUP
NATIONAL WEATHER SERVICE NORTHERN INDIANA
600 AM EDT THU APR 02 2015

NOTE: "FAIR" INDICATES FEW OR NO CLOUDS BELOW 12,000 FEET WITH NO
SIGNIFICANT WEATHER AND/OR OBSTRUCTIONS TO VISIBILITY.

* THESE STATIONS ARE NOT UNDER NWS QUALITY CONTROL. THEY ALSO MAY NOT
  REPORT WEATHER SUCH AS PRECIPITATION OR FOG.

INZ001>027-021100-
NORTHERN INDIANA

CITY           SKY/WX    TMP DP  RH WIND       PRES   REMARKS
GARY*          LGT RAIN  54  37  54 S8        29.78S
VALPARAISO     CLOUDY    53  33  46 S9        29.79F
MICHIGAN CITY* CLOUDY    54  27  35 S10G20    29.77F
LAPORTE*       CLOUDY    54  33  44 S9        29.79F
KNOX*          CLOUDY    54   9  16 S14       29.78F
SOUTH BEND     CLOUDY    56  28  34 S9        29.81F
GOSHEN         MOCLDY    52  30  43 S12       29.83F
MONTICELLO*    CLOUDY    55  32  41 S7        29.81F
LOGANSPORT*    CLOUDY    54  30  40 S10       29.83F
ROCHESTER*     CLOUDY    54  32  43 S8        29.83F
WARSAW*        MOCLDY    52  30  43 S8        29.84F
ANGOLA*        CLEAR     45  32  61 S5        29.86F
FORT WAYNE     CLOUDY    44  32  62 SE7       29.88F
HUNTINGTON*    CLOUDY    48  25  40 S6        29.86F
PERU/GRISSOM   CLOUDY    53  32  43 S13       29.82F
MARION*        CLOUDY    53  28  38 S13       29.87F

$$
INZ028>050-021100-
CENTRAL INDIANA

CITY           SKY/WX    TMP DP  RH WIND       PRES   REMARKS
LAFAYETTE      CLOUDY    55  30  38 S7        29.82F
KOKOMO*        CLOUDY    52  34  50 S16       29.85F
MUNCIE*        CLOUDY    56  24  29 S12       29.89F
INDIANAPOLIS   CLOUDY    54  29  38 SE10      29.85F

$$
MIZ043>046-050>051-056>058-064>065-071>073-077>080-021100-
SOUTHWEST LOWER MICHIGAN

CITY           SKY/WX    TMP DP  RH WIND       PRES   REMARKS
BATTLE CREEK   PTCLDY    51  31  46 S13       29.82F
BENTON HARBOR  MOCLDY    54  33  45 S10       29.77F
COLDWATER*     MOCLDY    49  28  44 S8        29.85F
HILLSDALE*     PTCLDY    48  30  50 S9        29.86F
HOLLAND        PTCLDY    55  34  45 S12       29.77F
GRAND RAPIDS   MOCLDY    52  34  50 S15       29.78F
KALAMAZOO      MOCLDY    51  32  48 S13       29.82F
STURGIS*       MOCLDY    48  30  49 CALM      29.83F
THREE RIVERS*  FAIR      49  32  52 S9        29.83F

$$
OHZ001>008-015>018-024>025-021100-
NORTHWEST OHIO

CITY           SKY/WX    TMP DP  RH WIND       PRES   REMARKS
DEFIANCE       MOCLDY    48  29  47 S6        29.89F
FINDLAY        MOCLDY    47  28  47 S16       29.91F
TOLEDO EXPRESS PTCLDY    45  29  53 S3        29.90F
TOLEDO METCALF PTCLDY    44  28  53 S8        29.92F
LIMA           MOCLDY    48  28  46 S14       29.92S

$$
AND FOR LAKE MICHIGAN COASTAL AND OPEN LAKE BUOY OBSERVATIONS

STATION/POSITION TEMP    WIND        PRES    VSBY  WAVE
                 AIR SEA DIR/SP/G                  HT/PER
                 (F)     (DEG/KT/KT) (MB)    (MI)  (FT/S)
CALUMET HARBOR    55     170/ 13/ 18 1006.6F
MICHIGAN CITY     55     150/ 16/ 21   N/A
BURNS HARBOR      53     190/ 14/ 24 1008.8R
SAINT JOSEPH      57     160/  6/ 15 1008.8F

$$
&&



USA.gov is the U.S. government's official web portal to all federal, state and local government web resources and services.